Time,TemperatureF,DewpointF,PressureIn,WindDirection,WindDirectionDegrees,WindSpeedMPH,WindSpeedGustMPH,Humidity,HourlyPrecipIn,Conditions,Clouds,dailyrainin,SoftwareType,DateUTC
2013-05-11 00:02:00,69.1,58.9,29.80,NE,43,4.0,4.6,70,0.00,CLR,,0.00,WeatherDisplay:10.37,2013-05-11 05:02:00,
2013-05-11 00:07:00,69.1,58.9,29.80,North,358,3.5,5.3,70,0.00,CLR,,0.00,WeatherDisplay:10.37,2013-05-11 05:07:00,
2013-05-11 00:12:00,68.7,58.5,29.80,North,358,3.7,4.6,70,0.00,CLR,,0.00,WeatherDisplay:10.37,2013-05-11 05:12:00,
2013-05-11 00:17:00,68.5,58.8,29.80,North,358,4.5,5.8,71,0.00,CLR,,0.00,WeatherDisplay:10.37,2013-05-11 05:17:00,
2013-05-11 00:22:00,68.2,58.8,29.80,West,268,3.7,5.8,72,0.00,CLR,,0.00,WeatherDisplay:10.37,2013-05-11 05:22:00,
2013-05-11 00:27:00,68.0,58.6,29.80,North,358,4.5,5.8,72,0.00,CLR,,0.00,WeatherDisplay:10.37,2013-05-11 05:27:00,
2013-05-11 00:32:00,67.6,58.7,29.80,North,358,5.4,6.9,73,0.00,CLR,,0.00,WeatherDisplay:10.37,2013-05-11 05:32:00,
2013-05-11 00:37:00,67.3,58.7,29.80,NW,313,5.4,6.9,74,0.00,CLR,,0.00,WeatherDisplay:10.37,2013-05-11 05:37:00,
2013-05-11 00:42:00,67.3,58.7,29.80,NW,313,5.1,5.8,74,0.00,CLR,,0.00,WeatherDisplay:10.37,2013-05-11 05:42:00,
2013-05-11 00:47:00,66.9,58.4,29.79,NNW,335,4.8,6.9,74,0.00,CLR,,0.00,WeatherDisplay:10.37,2013-05-11 05:47:00,
2013-05-11 00:52:00,66.9,58.4,29.78,North,358,3.8,5.8,74,0.00,CLR,,0.00,WeatherDisplay:10.37,2013-05-11 05:52:00,
2013-05-11 00:57:00,66.9,58.4,29.78,North,358,3.9,5.8,74,0.00,CLR,,0.00,WeatherDisplay:10.37,2013-05-11 05:57:00,
2013-05-11 01:02:00,66.6,58.0,29.78,NW,313,3.9,5.8,74,0.00,CLR,,0.00,WeatherDisplay:10.37,2013-05-11 06:02:00,
2013-05-11 01:07:00,66.4,58.2,29.78,NNW,335,5.0,6.9,75,0.00,CLR,,0.00,WeatherDisplay:10.37,2013-05-11 06:07:00,
2013-05-11 01:12:00,66.2,58.4,29.78,NNW,335,5.3,8.1,76,0.00,CLR,,0.00,WeatherDisplay:10.37,2013-05-11 06:12:00,
2013-05-11 01:17:00,66.0,58.6,29.78,North,358,5.4,6.9,77,0.00,CLR,,0.00,WeatherDisplay:10.37,2013-05-11 06:17:00,
2013-05-11 01:22:00,65.8,58.4,29.77,North,358,4.5,5.8,77,0.00,CLR,,0.00,WeatherDisplay:10.37,2013-05-11 06:22:00,
2013-05-11 01:27:00,65.7,58.3,29.77,NNW,335,4.5,6.9,77,0.00,CLR,,0.00,WeatherDisplay:10.37,2013-05-11 06:27:00,
2013-05-11 01:32:00,65.7,58.3,29.77,North,358,5.0,6.9,77,0.00,CLR,,0.00,WeatherDisplay:10.37,2013-05-11 06:32:00,
2013-05-11 01:37:00,65.5,58.1,29.77,North,358,4.4,6.9,77,0.00,CLR,,0.00,WeatherDisplay:10.37,2013-05-11 06:37:00,
2013-05-11 01:42:00,65.3,57.9,29.77,NNW,335,5.3,6.9,77,0.00,CLR,,0.00,WeatherDisplay:10.37,2013-05-11 06:42:00,
2013-05-11 01:47:00,65.1,57.7,29.77,NW,313,4.9,6.9,77,0.00,CLR,,0.00,WeatherDisplay:10.37,2013-05-11 06:47:00,
2013-05-11 01:52:00,65.1,57.7,29.77,West,268,6.1,8.1,77,0.00,CLR,,0.00,WeatherDisplay:10.37,2013-05-11 06:52:00,
2013-05-11 01:57:00,64.9,57.6,29.77,WSW,245,5.8,6.9,77,0.00,CLR,,0.00,WeatherDisplay:10.37,2013-05-11 06:57:00,
2013-05-11 02:03:00,64.9,57.9,29.77,North,358,6.4,9.2,78,0.00,CLR,,0.00,WeatherDisplay:10.37,2013-05-11 07:03:00,
2013-05-11 02:08:00,64.8,57.7,29.77,NW,313,5.8,6.9,78,0.00,CLR,,0.00,WeatherDisplay:10.37,2013-05-11 07:08:00,
2013-05-11 02:13:00,64.8,57.7,29.78,NNW,335,5.1,6.9,78,0.00,CLR,,0.00,WeatherDisplay:10.37,2013-05-11 07:13:00,
2013-05-11 02:18:00,64.8,57.4,29.77,NNW,335,5.3,6.9,77,0.00,CLR,,0.00,WeatherDisplay:10.37,2013-05-11 07:18:00,
2013-05-11 02:23:00,64.8,57.4,29.78,NNW,335,5.1,6.9,77,0.00,CLR,,0.00,WeatherDisplay:10.37,2013-05-11 07:23:00,
2013-05-11 02:28:00,64.6,57.2,29.78,NW,313,4.5,5.8,77,0.00,CLR,,0.00,WeatherDisplay:10.37,2013-05-11 07:28:00,
2013-05-11 02:33:00,64.6,57.2,29.78,NNW,335,4.5,5.8,77,0.00,CLR,,0.00,WeatherDisplay:10.37,2013-05-11 07:33:00,
2013-05-11 02:38:00,64.6,57.2,29.78,North,358,4.1,4.9,77,0.00,CLR,,0.00,WeatherDisplay:10.37,2013-05-11 07:38:00,
2013-05-11 02:43:00,64.6,57.2,29.78,North,358,3.8,4.6,77,0.00,CLR,,0.00,WeatherDisplay:10.37,2013-05-11 07:43:00,
2013-05-11 02:48:00,64.6,57.2,29.78,NNW,335,3.2,4.6,77,0.00,CLR,,0.00,WeatherDisplay:10.37,2013-05-11 07:48:00,
2013-05-11 02:53:00,64.4,57.0,29.79,North,358,3.8,5.8,77,0.00,CLR,,0.00,WeatherDisplay:10.37,2013-05-11 07:53:00,
2013-05-11 02:58:00,64.6,57.2,29.80,North,358,3.5,4.6,77,0.00,CLR,,0.00,WeatherDisplay:10.37,2013-05-11 07:58:00,
2013-05-11 03:03:00,64.4,57.0,29.80,NNE,21,2.7,4.6,77,0.00,SCT,,0.00,WeatherDisplay:10.37,2013-05-11 08:03:00,
2013-05-11 03:08:00,64.6,57.2,29.81,NE,43,2.7,3.5,77,0.00,SCT,,0.00,WeatherDisplay:10.37,2013-05-11 08:08:00,
2013-05-11 03:13:00,64.6,57.2,29.81,North,358,4.4,5.8,77,0.00,SCT,,0.00,WeatherDisplay:10.37,2013-05-11 08:13:00,
2013-05-11 03:18:00,64.4,57.0,29.80,North,358,3.9,4.6,77,0.00,SCT,,0.00,WeatherDisplay:10.37,2013-05-11 08:18:00,
2013-05-11 03:23:00,64.4,57.0,29.81,NNW,335,4.6,5.8,77,0.00,SCT,,0.00,WeatherDisplay:10.37,2013-05-11 08:23:00,
2013-05-11 03:28:00,64.4,57.4,29.81,North,358,4.6,5.8,78,0.00,SCT,,0.00,WeatherDisplay:10.37,2013-05-11 08:28:00,
2013-05-11 03:33:00,64.2,57.2,29.81,NW,313,5.2,6.9,78,0.00,SCT,,0.00,WeatherDisplay:10.37,2013-05-11 08:33:00,
2013-05-11 03:38:00,64.2,57.2,29.81,NNW,335,4.7,6.9,78,0.00,SCT,,0.00,WeatherDisplay:10.37,2013-05-11 08:38:00,
2013-05-11 03:43:00,64.2,57.2,29.81,North,358,5.3,8.1,78,0.00,SCT,,0.00,WeatherDisplay:10.37,2013-05-11 08:43:00,
2013-05-11 03:48:00,64.2,57.2,29.81,North,358,5.7,8.1,78,0.00,SCT,,0.00,WeatherDisplay:10.37,2013-05-11 08:48:00,
2013-05-11 03:53:00,64.0,57.0,29.81,North,358,5.9,7.9,78,0.00,SCT,,0.00,WeatherDisplay:10.37,2013-05-11 08:53:00,
2013-05-11 03:58:00,64.0,57.0,29.81,NNW,335,7.0,9.2,78,0.00,SCT,,0.00,WeatherDisplay:10.37,2013-05-11 08:58:00,
2013-05-11 04:03:00,63.9,56.9,29.81,NNW,335,4.5,7.6,78,0.00,SCT,,0.00,WeatherDisplay:10.37,2013-05-11 09:03:00,
2013-05-11 04:08:00,63.9,57.2,29.81,NNE,21,4.9,6.9,79,0.00,SCT,,0.00,WeatherDisplay:10.37,2013-05-11 09:08:00,
2013-05-11 04:13:00,63.9,57.2,29.82,NNW,335,6.0,7.2,79,0.00,SCT,,0.00,WeatherDisplay:10.37,2013-05-11 09:13:00,
2013-05-11 04:18:00,63.9,57.2,29.81,NNE,21,4.9,5.8,79,0.00,SCT,,0.00,WeatherDisplay:10.37,2013-05-11 09:18:00,
2013-05-11 04:23:00,63.7,57.0,29.81,NNW,335,4.9,5.8,79,0.00,SCT,,0.00,WeatherDisplay:10.37,2013-05-11 09:23:00,
2013-05-11 04:28:00,63.7,57.0,29.81,NNW,335,5.4,6.9,79,0.00,SCT,,0.00,WeatherDisplay:10.37,2013-05-11 09:28:00,
2013-05-11 04:33:00,63.7,57.0,29.81,North,358,6.1,8.1,79,0.00,SCT,,0.00,WeatherDisplay:10.37,2013-05-11 09:33:00,
2013-05-11 04:38:00,63.5,56.9,29.81,NNE,21,5.6,8.1,79,0.00,SCT,,0.00,WeatherDisplay:10.37,2013-05-11 09:38:00,
2013-05-11 04:43:00,63.3,56.7,29.82,NNW,335,4.8,5.8,79,0.00,SCT,,0.00,WeatherDisplay:10.37,2013-05-11 09:43:00,
2013-05-11 04:48:00,63.3,56.7,29.82,NE,43,3.8,4.6,79,0.00,SCT,,0.00,WeatherDisplay:10.37,2013-05-11 09:48:00,
2013-05-11 04:53:00,63.3,56.3,29.82,NE,43,2.9,3.5,78,0.00,SCT,,0.00,WeatherDisplay:10.37,2013-05-11 09:53:00,
2013-05-11 04:58:00,63.3,56.3,29.82,NNW,335,3.4,4.6,78,0.00,SCT,,0.00,WeatherDisplay:10.37,2013-05-11 09:58:00,
2013-05-11 05:03:00,63.1,56.5,29.82,NNW,335,4.5,5.8,79,0.00,CLR,,0.00,WeatherDisplay:10.37,2013-05-11 10:03:00,
2013-05-11 05:08:00,63.0,56.3,29.82,North,358,4.7,5.8,79,0.00,CLR,,0.00,WeatherDisplay:10.37,2013-05-11 10:08:00,
2013-05-11 05:13:00,62.8,56.2,29.81,North,358,4.1,5.8,79,0.00,CLR,,0.00,WeatherDisplay:10.37,2013-05-11 10:13:00,
2013-05-11 05:18:00,62.4,56.2,29.81,NNW,335,4.3,5.8,80,0.00,CLR,,0.00,WeatherDisplay:10.37,2013-05-11 10:18:00,
2013-05-11 05:23:00,62.2,55.6,29.81,North,358,3.9,4.6,79,0.00,CLR,,0.00,WeatherDisplay:10.37,2013-05-11 10:23:00,
2013-05-11 05:28:00,62.1,55.8,29.82,North,358,3.6,4.6,80,0.00,CLR,,0.00,WeatherDisplay:10.37,2013-05-11 10:28:00,
2013-05-11 05:33:00,61.9,55.6,29.81,NNW,335,3.9,5.8,80,0.00,CLR,,0.00,WeatherDisplay:10.37,2013-05-11 10:33:00,
2013-05-11 05:38:00,61.9,56.0,29.81,North,358,3.7,5.8,81,0.00,CLR,,0.00,WeatherDisplay:10.37,2013-05-11 10:38:00,
2013-05-11 05:43:00,61.7,55.8,29.82,NNE,21,3.3,5.3,81,0.00,CLR,,0.00,WeatherDisplay:10.37,2013-05-11 10:43:00,
2013-05-11 05:48:00,61.5,55.6,29.82,North,358,2.2,3.5,81,0.00,CLR,,0.00,WeatherDisplay:10.37,2013-05-11 10:48:00,
2013-05-11 05:53:00,61.7,55.5,29.83,North,358,1.1,2.3,80,0.00,CLR,,0.00,WeatherDisplay:10.37,2013-05-11 10:53:00,
2013-05-11 05:58:00,61.9,55.6,29.83,North,358,1.5,2.3,80,0.00,CLR,,0.00,WeatherDisplay:10.37,2013-05-11 10:58:00,
2013-05-11 06:03:00,61.9,55.6,29.84,NNW,335,1.0,2.3,80,0.00,CLR,,0.00,WeatherDisplay:10.37,2013-05-11 11:03:00,
2013-05-11 06:08:00,61.9,55.3,29.84,NNW,335,0.3,1.1,79,0.00,CLR,,0.00,WeatherDisplay:10.37,2013-05-11 11:08:00,
2013-05-11 06:13:00,61.9,55.3,29.85,SW,223,0.9,1.3,79,0.00,CLR,,0.00,WeatherDisplay:10.37,2013-05-11 11:13:00,
2013-05-11 06:18:00,61.9,55.3,29.85,SW,223,1.2,1.8,79,0.00,CLR,,0.00,WeatherDisplay:10.37,2013-05-11 11:18:00,
2013-05-11 06:23:00,61.9,55.3,29.85,NW,313,2.1,3.2,79,0.00,CLR,,0.00,WeatherDisplay:10.37,2013-05-11 11:23:00,
2013-05-11 06:28:00,61.5,54.9,29.86,NW,313,3.3,4.3,79,0.00,CLR,,0.00,WeatherDisplay:10.37,2013-05-11 11:28:00,
2013-05-11 06:33:00,61.2,54.6,29.85,NNW,335,3.8,4.6,79,0.00,CLR,,0.00,WeatherDisplay:10.37,2013-05-11 11:33:00,
2013-05-11 06:38:00,60.4,54.6,29.85,NW,313,4.7,6.9,81,0.00,CLR,,0.00,WeatherDisplay:10.37,2013-05-11 11:38:00,
2013-05-11 06:43:00,60.1,54.9,29.86,NW,313,5.4,6.9,83,0.00,CLR,,0.00,WeatherDisplay:10.37,2013-05-11 11:43:00,
2013-05-11 06:48:00,60.1,54.9,29.86,NW,313,4.9,6.9,83,0.00,CLR,,0.00,WeatherDisplay:10.37,2013-05-11 11:48:00,
2013-05-11 06:53:00,59.9,54.7,29.86,North,358,4.4,5.8,83,0.00,CLR,,0.00,WeatherDisplay:10.37,2013-05-11 11:53:00,
2013-05-11 06:58:00,59.9,54.7,29.87,NW,313,3.7,4.6,83,0.00,CLR,,0.00,WeatherDisplay:10.37,2013-05-11 11:58:00,
2013-05-11 07:03:00,59.9,54.7,29.86,NW,313,4.1,4.9,83,0.00,CLR,,0.00,WeatherDisplay:10.37,2013-05-11 12:03:00,
2013-05-11 07:08:00,59.9,54.7,29.86,NNW,335,4.0,5.8,83,0.00,CLR,,0.00,WeatherDisplay:10.37,2013-05-11 12:08:00,
2013-05-11 07:13:00,59.9,54.7,29.86,NNW,335,5.1,6.9,83,0.00,CLR,,0.00,WeatherDisplay:10.37,2013-05-11 12:13:00,
2013-05-11 07:18:00,59.9,55.1,29.86,North,358,6.4,8.1,84,0.00,CLR,,0.00,WeatherDisplay:10.37,2013-05-11 12:18:00,
2013-05-11 07:23:00,59.7,55.2,29.86,North,358,5.7,6.9,85,0.00,CLR,,0.00,WeatherDisplay:10.37,2013-05-11 12:23:00,
2013-05-11 07:28:00,59.9,55.4,29.86,North,358,7.2,9.2,85,0.00,CLR,,0.00,WeatherDisplay:10.37,2013-05-11 12:28:00,
2013-05-11 07:33:00,59.9,55.4,29.86,North,358,6.7,9.2,85,0.00,CLR,,0.00,WeatherDisplay:10.37,2013-05-11 12:33:00,
2013-05-11 07:39:00,60.1,55.6,29.86,North,358,6.1,8.7,85,0.00,CLR,,0.00,WeatherDisplay:10.37,2013-05-11 12:39:00,
2013-05-11 07:44:00,60.3,55.4,29.86,NW,313,6.6,8.1,84,0.00,CLR,,0.00,WeatherDisplay:10.37,2013-05-11 12:44:00,
2013-05-11 07:49:00,60.4,55.6,29.86,North,358,5.8,6.9,84,0.00,CLR,,0.00,WeatherDisplay:10.37,2013-05-11 12:49:00,
2013-05-11 07:54:00,60.6,55.8,29.86,North,358,5.4,6.9,84,0.00,CLR,,0.00,WeatherDisplay:10.37,2013-05-11 12:54:00,
2013-05-11 07:59:00,60.8,55.6,29.86,NE,43,5.3,6.9,83,0.00,CLR,,0.00,WeatherDisplay:10.37,2013-05-11 12:59:00,
2013-05-11 08:04:00,61.3,56.1,29.87,North,358,4.8,7.7,83,0.00,CLR,,0.00,WeatherDisplay:10.37,2013-05-11 13:04:00,
2013-05-11 08:09:00,61.5,55.6,29.86,NNW,335,4.7,8.6,81,0.00,CLR,,0.00,WeatherDisplay:10.37,2013-05-11 13:09:00,
2013-05-11 08:14:00,61.7,55.5,29.87,NNW,335,6.3,8.1,80,0.00,CLR,,0.00,WeatherDisplay:10.37,2013-05-11 13:14:00,
2013-05-11 08:19:00,61.9,55.3,29.87,NNW,335,7.0,9.2,79,0.00,CLR,,0.00,WeatherDisplay:10.37,2013-05-11 13:19:00,
2013-05-11 08:24:00,61.9,55.6,29.87,North,358,4.4,5.8,80,0.00,CLR,,0.00,WeatherDisplay:10.37,2013-05-11 13:24:00,
2013-05-11 08:29:00,62.2,55.6,29.87,NNW,335,5.1,7.7,79,0.00,CLR,,0.00,WeatherDisplay:10.37,2013-05-11 13:29:00,
2013-05-11 08:34:00,62.6,55.3,29.87,North,358,8.4,11.5,77,0.00,CLR,,0.00,WeatherDisplay:10.37,2013-05-11 13:34:00,
2013-05-11 08:39:00,62.8,55.1,29.87,North,358,6.2,9.2,76,0.00,CLR,,0.00,WeatherDisplay:10.37,2013-05-11 13:39:00,
2013-05-11 08:44:00,63.1,55.4,29.88,NNW,335,8.7,10.4,76,0.00,CLR,,0.00,WeatherDisplay:10.37,2013-05-11 13:44:00,
2013-05-11 08:49:00,63.3,55.6,29.87,NNW,335,8.1,9.2,76,0.00,CLR,,0.00,WeatherDisplay:10.37,2013-05-11 13:49:00,
2013-05-11 08:54:00,63.7,56.3,29.87,NNW,335,7.9,11.5,77,0.00,CLR,,0.00,WeatherDisplay:10.37,2013-05-11 13:54:00,
2013-05-11 08:59:00,64.0,55.6,29.87,NNW,335,8.3,12.7,74,0.00,CLR,,0.00,WeatherDisplay:10.37,2013-05-11 13:59:00,
2013-05-11 09:04:00,64.2,55.4,29.87,NE,43,10.2,12.7,73,0.00,CLR,,0.00,WeatherDisplay:10.37,2013-05-11 14:04:00,
2013-05-11 09:09:00,64.4,55.2,29.87,NNW,335,8.1,11.5,72,0.00,CLR,,0.00,WeatherDisplay:10.37,2013-05-11 14:09:00,
2013-05-11 09:14:00,64.8,54.3,29.87,North,358,11.2,15.0,69,0.00,CLR,,0.00,WeatherDisplay:10.37,2013-05-11 14:14:00,
2013-05-11 09:19:00,65.1,55.1,29.87,NE,43,8.7,11.5,70,0.00,CLR,,0.00,WeatherDisplay:10.37,2013-05-11 14:19:00,
2013-05-11 09:24:00,65.3,55.3,29.87,NNE,21,9.6,11.5,70,0.00,CLR,,0.00,WeatherDisplay:10.37,2013-05-11 14:24:00,
2013-05-11 09:29:00,65.8,55.4,29.87,NNW,335,9.8,13.8,69,0.00,CLR,,0.00,WeatherDisplay:10.37,2013-05-11 14:29:00,
2013-05-11 09:34:00,66.0,54.7,29.87,North,358,9.1,13.8,67,0.00,CLR,,0.00,WeatherDisplay:10.37,2013-05-11 14:34:00,
2013-05-11 09:39:00,66.4,54.7,29.86,North,358,9.2,12.7,66,0.00,CLR,,0.00,WeatherDisplay:10.37,2013-05-11 14:39:00,
2013-05-11 09:44:00,66.6,54.8,29.87,North,358,8.9,12.7,66,0.00,CLR,,0.00,WeatherDisplay:10.37,2013-05-11 14:44:00,
2013-05-11 09:49:00,67.1,54.5,29.87,NE,43,10.7,16.1,64,0.00,CLR,,0.00,WeatherDisplay:10.37,2013-05-11 14:49:00,
2013-05-11 09:54:00,67.3,54.7,29.87,NNW,335,10.4,15.0,64,0.00,CLR,,0.00,WeatherDisplay:10.37,2013-05-11 14:54:00,
2013-05-11 09:59:00,67.5,54.4,29.87,NNE,21,11.3,16.1,63,0.00,CLR,,0.00,WeatherDisplay:10.37,2013-05-11 14:59:00,
2013-05-11 10:04:00,67.6,55.0,29.87,North,358,10.1,13.8,64,0.00,CLR,,0.00,WeatherDisplay:10.37,2013-05-11 15:04:00,
2013-05-11 10:09:00,68.0,54.9,29.87,NE,43,12.2,16.1,63,0.00,CLR,,0.00,WeatherDisplay:10.37,2013-05-11 15:09:00,
2013-05-11 10:14:00,68.0,55.4,29.87,NNE,21,8.8,11.5,64,0.00,CLR,,0.00,WeatherDisplay:10.37,2013-05-11 15:14:00,
2013-05-11 10:19:00,68.2,55.1,29.87,NE,43,7.0,13.8,63,0.00,CLR,,0.00,WeatherDisplay:10.37,2013-05-11 15:19:00,
2013-05-11 10:24:00,68.5,55.4,29.87,NNW,335,10.7,13.8,63,0.00,CLR,,0.00,WeatherDisplay:10.37,2013-05-11 15:24:00,
2013-05-11 10:29:00,68.9,54.4,29.87,NE,43,12.5,20.7,60,0.00,CLR,,0.00,WeatherDisplay:10.37,2013-05-11 15:29:00,
2013-05-11 10:34:00,69.1,53.7,29.87,NNW,335,12.9,16.1,58,0.00,CLR,,0.00,WeatherDisplay:10.37,2013-05-11 15:34:00,
2013-05-11 10:39:00,69.1,54.1,29.87,North,358,9.6,12.7,59,0.00,CLR,,0.00,WeatherDisplay:10.37,2013-05-11 15:39:00,
2013-05-11 10:44:00,69.4,53.5,29.87,NNE,21,14.4,18.4,57,0.00,CLR,,0.00,WeatherDisplay:10.37,2013-05-11 15:44:00,
2013-05-11 10:49:00,69.4,52.6,29.87,North,358,13.7,18.4,55,0.00,CLR,,0.00,WeatherDisplay:10.37,2013-05-11 15:49:00,
2013-05-11 10:54:00,69.6,51.7,29.87,NNW,335,14.5,17.3,53,0.00,CLR,,0.00,WeatherDisplay:10.37,2013-05-11 15:54:00,
2013-05-11 10:59:00,69.8,51.4,29.87,North,358,14.7,19.6,52,0.00,CLR,,0.00,WeatherDisplay:10.37,2013-05-11 15:59:00,
2013-05-11 11:04:00,70.0,51.0,29.87,North,358,16.1,20.7,51,0.00,CLR,,0.00,WeatherDisplay:10.37,2013-05-11 16:04:00,
2013-05-11 11:09:00,70.2,52.7,29.87,NNW,335,15.6,20.0,54,0.00,CLR,,0.00,WeatherDisplay:10.37,2013-05-11 16:09:00,
2013-05-11 11:14:00,70.2,52.7,29.87,North,358,14.2,18.4,54,0.00,CLR,,0.00,WeatherDisplay:10.37,2013-05-11 16:14:00,
2013-05-11 11:20:00,70.5,52.6,29.87,North,358,11.6,19.6,53,0.00,CLR,,0.00,WeatherDisplay:10.37,2013-05-11 16:20:00,
2013-05-11 11:25:00,70.7,51.7,29.87,NE,43,16.7,20.7,51,0.00,CLR,,0.00,WeatherDisplay:10.37,2013-05-11 16:25:00,
2013-05-11 11:30:00,70.9,52.9,29.87,NE,43,11.5,18.4,53,0.00,CLR,,0.00,WeatherDisplay:10.37,2013-05-11 16:30:00,
2013-05-11 11:35:00,70.9,52.9,29.88,North,358,11.9,17.3,53,0.00,CLR,,0.00,WeatherDisplay:10.37,2013-05-11 16:35:00,
2013-05-11 11:40:00,71.2,52.2,29.88,NE,43,14.8,21.9,51,0.00,CLR,,0.00,WeatherDisplay:10.37,2013-05-11 16:40:00,
2013-05-11 11:45:00,71.4,50.7,29.88,North,358,12.7,17.3,48,0.00,CLR,,0.00,WeatherDisplay:10.37,2013-05-11 16:45:00,
2013-05-11 11:50:00,71.6,51.4,29.88,North,358,14.1,18.4,49,0.00,CLR,,0.00,WeatherDisplay:10.37,2013-05-11 16:50:00,
2013-05-11 11:55:00,72.0,50.6,29.88,NE,43,13.1,17.3,47,0.00,CLR,,0.00,WeatherDisplay:10.37,2013-05-11 16:55:00,
2013-05-11 12:00:00,72.0,51.8,29.87,NE,43,16.9,23.0,49,0.00,CLR,,0.00,WeatherDisplay:10.37,2013-05-11 17:00:00,
2013-05-11 12:05:00,72.0,50.6,29.88,NE,43,16.2,19.6,47,0.00,CLR,,0.00,WeatherDisplay:10.37,2013-05-11 17:05:00,
2013-05-11 12:10:00,72.1,50.2,29.88,NE,43,12.5,16.1,46,0.00,CLR,,0.00,WeatherDisplay:10.37,2013-05-11 17:10:00,
2013-05-11 12:15:00,72.3,51.5,29.88,NE,43,11.4,15.0,48,0.00,CLR,,0.00,WeatherDisplay:10.37,2013-05-11 17:15:00,
2013-05-11 12:20:00,72.5,50.5,29.88,NE,43,15.5,19.6,46,0.00,CLR,,0.00,WeatherDisplay:10.37,2013-05-11 17:20:00,
2013-05-11 12:25:00,72.5,49.9,29.88,North,358,12.6,20.7,45,0.00,CLR,,0.00,WeatherDisplay:10.37,2013-05-11 17:25:00,
2013-05-11 12:30:00,72.7,49.5,29.87,NNE,21,16.0,20.7,44,0.00,CLR,,0.00,WeatherDisplay:10.37,2013-05-11 17:30:00,
2013-05-11 12:35:00,72.7,51.3,29.88,NNE,21,9.8,11.5,47,0.00,CLR,,0.00,WeatherDisplay:10.37,2013-05-11 17:35:00,
2013-05-11 12:40:00,73.0,51.0,29.88,NE,43,10.7,16.1,46,0.00,CLR,,0.00,WeatherDisplay:10.37,2013-05-11 17:40:00,
2013-05-11 12:45:00,73.2,51.2,29.88,NNE,21,12.8,13.8,46,0.00,CLR,,0.00,WeatherDisplay:10.37,2013-05-11 17:45:00,
2013-05-11 12:50:00,73.4,50.8,29.88,NE,43,9.6,12.7,45,0.00,CLR,,0.00,WeatherDisplay:10.37,2013-05-11 17:50:00,
2013-05-11 12:55:00,73.4,50.2,29.88,NNW,335,10.3,12.7,44,0.00,CLR,,0.00,WeatherDisplay:10.37,2013-05-11 17:55:00,
2013-05-11 13:00:00,73.4,49.5,29.88,NE,43,11.0,13.8,43,0.00,CLR,,0.00,WeatherDisplay:10.37,2013-05-11 18:00:00,
2013-05-11 13:05:00,73.6,49.7,29.88,NNE,21,10.5,12.7,43,0.00,CLR,,0.00,WeatherDisplay:10.37,2013-05-11 18:05:00,
2013-05-11 13:10:00,73.8,49.9,29.88,North,358,8.7,12.7,43,0.00,CLR,,0.00,WeatherDisplay:10.37,2013-05-11 18:10:00,
2013-05-11 13:15:00,73.8,50.5,29.88,NE,43,9.8,13.8,44,0.00,CLR,,0.00,WeatherDisplay:10.37,2013-05-11 18:15:00,
2013-05-11 13:20:00,74.1,50.8,29.88,NNW,335,12.7,16.1,44,0.00,CLR,,0.00,WeatherDisplay:10.37,2013-05-11 18:20:00,
2013-05-11 13:25:00,74.1,50.8,29.88,NNW,335,10.7,16.1,44,0.00,CLR,,0.00,WeatherDisplay:10.37,2013-05-11 18:25:00,
2013-05-11 13:30:00,74.5,49.9,29.88,NNW,335,11.0,13.8,42,0.00,CLR,,0.00,WeatherDisplay:10.37,2013-05-11 18:30:00,
2013-05-11 13:35:00,74.5,50.5,29.88,NNW,335,5.1,6.9,43,0.00,CLR,,0.00,WeatherDisplay:10.37,2013-05-11 18:35:00,
2013-05-11 13:40:00,74.7,51.3,29.88,NNE,21,11.6,14.1,44,0.00,CLR,,0.00,WeatherDisplay:10.37,2013-05-11 18:40:00,
2013-05-11 13:45:00,75.0,49.7,29.88,NNW,335,11.2,15.0,41,0.00,CLR,,0.00,WeatherDisplay:10.37,2013-05-11 18:45:00,
2013-05-11 13:50:00,75.2,50.5,29.88,NE,43,12.5,16.1,42,0.00,CLR,,0.00,WeatherDisplay:10.37,2013-05-11 18:50:00,
2013-05-11 13:55:00,75.2,49.9,29.87,North,358,10.5,15.0,41,0.00,CLR,,0.00,WeatherDisplay:10.37,2013-05-11 18:55:00,
2013-05-11 14:00:00,75.2,50.5,29.87,East,88,8.8,14.8,42,0.00,CLR,,0.00,WeatherDisplay:10.37,2013-05-11 19:00:00,
2013-05-11 14:05:00,75.6,50.2,29.87,NE,43,13.1,16.1,41,0.00,CLR,,0.00,WeatherDisplay:10.37,2013-05-11 19:05:00,
2013-05-11 14:10:00,75.4,49.4,29.87,North,358,10.4,12.7,40,0.00,CLR,,0.00,WeatherDisplay:10.37,2013-05-11 19:10:00,
2013-05-11 14:15:00,75.6,49.5,29.87,NNE,21,11.0,13.8,40,0.00,CLR,,0.00,WeatherDisplay:10.37,2013-05-11 19:15:00,
2013-05-11 14:20:00,75.9,49.2,29.87,NE,43,11.4,15.0,39,0.00,CLR,,0.00,WeatherDisplay:10.37,2013-05-11 19:20:00,
2013-05-11 14:25:00,75.9,49.9,29.87,NE,43,12.1,18.6,40,0.00,CLR,,0.00,WeatherDisplay:10.37,2013-05-11 19:25:00,
2013-05-11 14:30:00,76.1,48.6,29.87,NE,43,10.4,17.3,38,0.00,CLR,,0.00,WeatherDisplay:10.37,2013-05-11 19:30:00,
2013-05-11 14:35:00,76.3,50.2,29.87,NE,43,11.4,13.8,40,0.00,CLR,,0.00,WeatherDisplay:10.37,2013-05-11 19:35:00,
2013-05-11 14:40:00,76.5,49.7,29.87,NE,43,12.1,16.1,39,0.00,CLR,,0.00,WeatherDisplay:10.37,2013-05-11 19:40:00,
2013-05-11 14:45:00,76.8,50.7,29.87,North,358,8.2,9.2,40,0.00,CLR,,0.00,WeatherDisplay:10.37,2013-05-11 19:45:00,
2013-05-11 14:50:00,77.0,49.4,29.87,NNE,21,10.0,17.3,38,0.00,CLR,,0.00,WeatherDisplay:10.37,2013-05-11 19:50:00,
2013-05-11 14:55:00,77.2,50.3,29.87,ENE,65,13.1,16.1,39,0.00,CLR,,0.00,WeatherDisplay:10.37,2013-05-11 19:55:00,
2013-05-11 15:00:00,77.2,48.9,29.87,North,358,6.6,9.2,37,0.00,CLR,,0.00,WeatherDisplay:10.37,2013-05-11 20:00:00,
2013-05-11 15:05:00,77.4,49.0,29.87,NNW,335,10.4,12.7,37,0.00,CLR,,0.00,WeatherDisplay:10.37,2013-05-11 20:05:00,
2013-05-11 15:10:00,77.4,49.8,29.87,NNE,21,12.2,18.4,38,0.00,CLR,,0.00,WeatherDisplay:10.37,2013-05-11 20:10:00,
2013-05-11 15:15:00,77.4,49.8,29.87,NE,43,11.9,15.1,38,0.00,CLR,,0.00,WeatherDisplay:10.37,2013-05-11 20:15:00,
2013-05-11 15:20:00,77.5,50.6,29.86,NE,43,11.9,16.6,39,0.00,CLR,,0.00,WeatherDisplay:10.37,2013-05-11 20:20:00,
2013-05-11 15:25:00,77.7,51.5,29.86,East,88,11.0,16.1,40,0.00,CLR,,0.00,WeatherDisplay:10.37,2013-05-11 20:25:00,
2013-05-11 15:30:00,77.9,51.6,29.86,NE,43,8.7,11.5,40,0.00,CLR,,0.00,WeatherDisplay:10.37,2013-05-11 20:30:00,
2013-05-11 15:35:00,78.1,51.8,29.86,NE,43,11.0,16.4,40,0.00,CLR,,0.00,WeatherDisplay:10.37,2013-05-11 20:35:00,
2013-05-11 15:40:00,78.3,52.0,29.86,NE,43,11.6,12.2,40,0.00,CLR,,0.00,WeatherDisplay:10.37,2013-05-11 20:40:00,
2013-05-11 15:45:00,78.4,50.0,29.85,NNE,21,11.1,20.7,37,0.00,CLR,,0.00,WeatherDisplay:10.37,2013-05-11 20:45:00,
2013-05-11 15:50:00,78.4,51.4,29.85,NE,43,7.7,17.3,39,0.00,CLR,,0.00,WeatherDisplay:10.37,2013-05-11 20:50:00,
2013-05-11 15:55:00,78.4,51.4,29.85,NE,43,10.5,16.1,39,0.00,CLR,,0.00,WeatherDisplay:10.37,2013-05-11 20:55:00,
2013-05-11 16:00:00,78.4,50.7,29.85,NNE,21,10.2,12.0,38,0.00,CLR,,0.00,WeatherDisplay:10.37,2013-05-11 21:00:00,
2013-05-11 16:05:00,78.8,51.0,29.85,NE,43,13.7,18.4,38,0.00,CLR,,0.00,WeatherDisplay:10.37,2013-05-11 21:05:00,
2013-05-11 16:10:00,78.8,51.7,29.85,NE,43,10.1,12.7,39,0.00,CLR,,0.00,WeatherDisplay:10.37,2013-05-11 21:10:00,
2013-05-11 16:15:00,79.0,50.5,29.84,North,358,15.1,19.6,37,0.00,CLR,,0.00,WeatherDisplay:10.37,2013-05-11 21:15:00,
2013-05-11 16:20:00,79.2,51.4,29.85,NNE,21,12.8,17.3,38,0.00,CLR,,0.00,WeatherDisplay:10.37,2013-05-11 21:20:00,
2013-05-11 16:25:00,79.2,51.4,29.84,NE,43,11.2,13.8,38,0.00,CLR,,0.00,WeatherDisplay:10.37,2013-05-11 21:25:00,
2013-05-11 16:30:00,79.3,51.5,29.84,East,88,11.5,15.0,38,0.00,CLR,,0.00,WeatherDisplay:10.37,2013-05-11 21:30:00,
2013-05-11 16:35:00,79.5,51.7,29.85,NNE,21,11.0,13.8,38,0.00,CLR,,0.00,WeatherDisplay:10.37,2013-05-11 21:35:00,
2013-05-11 16:40:00,79.7,51.1,29.84,NNW,335,11.3,16.1,37,0.00,CLR,,0.00,WeatherDisplay:10.37,2013-05-11 21:40:00,
2013-05-11 16:45:00,79.5,51.0,29.84,NNW,335,10.0,12.7,37,0.00,CLR,,0.00,WeatherDisplay:10.37,2013-05-11 21:45:00,
2013-05-11 16:50:00,79.5,51.7,29.84,NE,43,10.7,15.0,38,0.00,CLR,,0.00,WeatherDisplay:10.37,2013-05-11 21:50:00,
2013-05-11 16:55:00,79.5,52.4,29.84,NNW,335,8.2,11.5,39,0.00,CLR,,0.00,WeatherDisplay:10.37,2013-05-11 21:55:00,
2013-05-11 17:01:00,79.7,51.8,29.84,NNW,335,8.7,11.5,38,0.00,CLR,,0.00,WeatherDisplay:10.37,2013-05-11 22:01:00,
2013-05-11 17:06:00,79.9,49.8,29.84,NE,43,9.9,15.0,35,0.00,CLR,,0.00,WeatherDisplay:10.37,2013-05-11 22:06:00,
2013-05-11 17:11:00,79.9,49.8,29.84,North,358,6.5,9.2,35,0.00,CLR,,0.00,WeatherDisplay:10.37,2013-05-11 22:11:00,
2013-05-11 17:16:00,79.9,49.8,29.84,NNW,335,10.2,14.1,35,0.00,CLR,,0.00,WeatherDisplay:10.37,2013-05-11 22:16:00,
2013-05-11 17:21:00,80.1,49.9,29.84,NNW,335,10.4,13.8,35,0.00,CLR,,0.00,WeatherDisplay:10.37,2013-05-11 22:21:00,
2013-05-11 17:26:00,80.2,50.1,29.84,NNE,21,9.8,12.7,35,0.00,CLR,,0.00,WeatherDisplay:10.37,2013-05-11 22:26:00,
2013-05-11 17:31:00,80.2,48.5,29.84,NNW,335,9.8,12.7,33,0.00,CLR,,0.00,WeatherDisplay:10.37,2013-05-11 22:31:00,
2013-05-11 17:36:00,80.4,49.5,29.84,NNE,21,7.4,9.2,34,0.00,CLR,,0.00,WeatherDisplay:10.37,2013-05-11 22:36:00,
2013-05-11 17:41:00,80.6,50.4,29.84,NNE,21,9.9,17.3,35,0.00,CLR,,0.00,WeatherDisplay:10.37,2013-05-11 22:41:00,
2013-05-11 17:46:00,81.0,49.9,29.84,North,358,7.3,9.2,34,0.00,CLR,,0.00,WeatherDisplay:10.37,2013-05-11 22:46:00,
2013-05-11 17:51:00,81.0,49.1,29.84,NE,43,7.4,9.2,33,0.00,CLR,,0.00,WeatherDisplay:10.37,2013-05-11 22:51:00,
2013-05-11 17:56:00,81.0,50.7,29.83,NE,43,7.9,12.3,35,0.00,CLR,,0.00,WeatherDisplay:10.37,2013-05-11 22:56:00,
2013-05-11 18:01:00,81.3,50.3,29.84,NNW,335,8.3,10.0,34,0.00,CLR,,0.00,WeatherDisplay:10.37,2013-05-11 23:01:00,
2013-05-11 18:06:00,81.3,48.6,29.83,NNE,21,10.3,15.0,32,0.00,CLR,,0.00,WeatherDisplay:10.37,2013-05-11 23:06:00,
2013-05-11 18:11:00,81.3,49.5,29.83,NNW,335,12.8,16.3,33,0.00,CLR,,0.00,WeatherDisplay:10.37,2013-05-11 23:11:00,
2013-05-11 18:16:00,81.0,49.1,29.83,NE,43,6.4,9.2,33,0.00,CLR,,0.00,WeatherDisplay:10.37,2013-05-11 23:16:00,
2013-05-11 18:21:00,80.8,48.2,29.83,North,358,11.5,13.8,32,0.00,CLR,,0.00,WeatherDisplay:10.37,2013-05-11 23:21:00,
2013-05-11 18:26:00,80.6,48.8,29.83,NNW,335,14.0,19.6,33,0.00,CLR,,0.00,WeatherDisplay:10.37,2013-05-11 23:26:00,
2013-05-11 18:31:00,80.6,48.8,29.83,NE,43,10.8,13.8,33,0.00,CLR,,0.00,WeatherDisplay:10.37,2013-05-11 23:31:00,
2013-05-11 18:36:00,80.4,48.7,29.83,NE,43,9.7,15.0,33,0.00,CLR,,0.00,WeatherDisplay:10.37,2013-05-11 23:36:00,
2013-05-11 18:41:00,80.6,49.6,29.84,NNE,21,8.1,10.4,34,0.00,CLR,,0.00,WeatherDisplay:10.37,2013-05-11 23:41:00,
2013-05-11 18:46:00,80.6,49.6,29.84,ENE,65,8.9,10.9,34,0.00,CLR,,0.00,WeatherDisplay:10.37,2013-05-11 23:46:00,
2013-05-11 18:51:00,80.6,48.8,29.84,NE,43,8.8,12.7,33,0.00,CLR,,0.00,WeatherDisplay:10.37,2013-05-11 23:51:00,
2013-05-11 18:56:00,80.4,48.7,29.84,NNE,21,7.7,9.2,33,0.00,CLR,,0.00,WeatherDisplay:10.37,2013-05-11 23:56:00,
2013-05-11 19:01:00,80.4,48.7,29.83,NE,43,8.3,11.5,33,0.00,CLR,,0.00,WeatherDisplay:10.37,2013-05-12 00:01:00,
2013-05-11 19:06:00,80.2,48.5,29.84,NE,43,7.1,9.2,33,0.00,CLR,,0.00,WeatherDisplay:10.37,2013-05-12 00:06:00,
2013-05-11 19:11:00,80.4,49.5,29.84,NE,43,6.7,9.2,34,0.00,CLR,,0.00,WeatherDisplay:10.37,2013-05-12 00:11:00,
2013-05-11 19:16:00,80.2,48.5,29.84,NE,43,8.4,11.5,33,0.00,CLR,,0.00,WeatherDisplay:10.37,2013-05-12 00:16:00,
2013-05-11 19:21:00,80.1,49.2,29.84,NE,43,7.8,11.5,34,0.00,CLR,,0.00,WeatherDisplay:10.37,2013-05-12 00:21:00,
2013-05-11 19:26:00,79.7,48.8,29.84,NE,43,7.5,11.5,34,0.00,CLR,,0.00,WeatherDisplay:10.37,2013-05-12 00:26:00,
2013-05-11 19:31:00,79.3,48.5,29.84,North,358,6.5,9.2,34,0.00,CLR,,0.00,WeatherDisplay:10.37,2013-05-12 00:31:00,
2013-05-11 19:36:00,79.2,49.1,29.85,NNE,21,6.6,9.2,35,0.00,CLR,,0.00,WeatherDisplay:10.37,2013-05-12 00:36:00,
2013-05-11 19:41:00,79.0,49.7,29.85,NE,43,4.3,5.8,36,0.00,CLR,,0.00,WeatherDisplay:10.37,2013-05-12 00:41:00,
2013-05-11 19:46:00,78.8,50.3,29.85,NE,43,4.1,6.9,37,0.00,CLR,,0.00,WeatherDisplay:10.37,2013-05-12 00:46:00,
2013-05-11 19:51:00,78.6,50.9,29.86,NE,43,3.0,4.6,38,0.00,CLR,,0.00,WeatherDisplay:10.37,2013-05-12 00:51:00,
2013-05-11 19:56:00,78.4,50.7,29.86,NNE,21,2.7,3.5,38,0.00,CLR,,0.00,WeatherDisplay:10.37,2013-05-12 00:56:00,
2013-05-11 20:01:00,78.3,50.6,29.86,NNW,335,2.7,3.5,38,0.00,CLR,,0.00,WeatherDisplay:10.37,2013-05-12 01:01:00,
2013-05-11 20:06:00,77.7,50.8,29.87,NE,43,3.3,3.5,39,0.00,CLR,,0.00,WeatherDisplay:10.37,2013-05-12 01:06:00,
2013-05-11 20:11:00,77.4,50.5,29.86,NE,43,2.2,3.5,39,0.00,CLR,,0.00,WeatherDisplay:10.37,2013-05-12 01:11:00,
2013-05-11 20:16:00,76.8,50.7,29.86,NNE,21,2.6,3.5,40,0.00,CLR,,0.00,WeatherDisplay:10.37,2013-05-12 01:16:00,
2013-05-11 20:21:00,76.5,50.3,29.86,NNE,21,1.9,2.3,40,0.00,CLR,,0.00,WeatherDisplay:10.37,2013-05-12 01:21:00,
2013-05-11 20:26:00,76.3,50.8,29.87,NNW,335,1.4,2.3,41,0.00,CLR,,0.00,WeatherDisplay:10.37,2013-05-12 01:26:00,
2013-05-11 20:31:00,76.1,51.3,29.87,North,358,0.4,1.1,42,0.00,CLR,,0.00,WeatherDisplay:10.37,2013-05-12 01:31:00,
2013-05-11 20:36:00,75.9,51.2,29.87,North,358,0.9,1.3,42,0.00,CLR,,0.00,WeatherDisplay:10.37,2013-05-12 01:36:00,
2013-05-11 20:41:00,75.6,50.9,29.87,NW,313,1.3,2.3,42,0.00,CLR,,0.00,WeatherDisplay:10.37,2013-05-12 01:41:00,
2013-05-11 20:46:00,75.4,51.3,29.87,NW,313,1.5,2.3,43,0.00,CLR,,0.00,WeatherDisplay:10.37,2013-05-12 01:46:00,
2013-05-11 20:51:00,74.8,51.5,29.87,NW,313,1.4,2.3,44,0.00,CLR,,0.00,WeatherDisplay:10.37,2013-05-12 01:51:00,
2013-05-11 20:56:00,74.5,51.1,29.87,NW,313,1.0,2.2,44,0.00,CLR,,0.00,WeatherDisplay:10.37,2013-05-12 01:56:00,
2013-05-11 21:01:00,74.3,51.0,29.87,NNW,335,1.3,2.3,44,0.00,CLR,,0.00,WeatherDisplay:10.37,2013-05-12 02:01:00,
2013-05-11 21:06:00,73.9,51.3,29.87,NW,313,0.6,1.1,45,0.00,CLR,,0.00,WeatherDisplay:10.37,2013-05-12 02:06:00,
2013-05-11 21:11:00,73.8,51.1,29.87,NNW,335,0.6,1.1,45,0.00,CLR,,0.00,WeatherDisplay:10.37,2013-05-12 02:11:00,
2013-05-11 21:16:00,73.4,51.4,29.88,NE,43,1.1,2.3,46,0.00,CLR,,0.00,WeatherDisplay:10.37,2013-05-12 02:16:00,
2013-05-11 21:21:00,73.4,51.9,29.88,NE,43,0.4,1.1,47,0.00,CLR,,0.00,WeatherDisplay:10.37,2013-05-12 02:21:00,
2013-05-11 21:26:00,73.4,51.9,29.88,NW,313,0.0,0.0,47,0.00,CLR,,0.00,WeatherDisplay:10.37,2013-05-12 02:26:00,
2013-05-11 21:31:00,73.0,51.6,29.88,West,268,0.0,0.0,47,0.00,CLR,,0.00,WeatherDisplay:10.37,2013-05-12 02:31:00,
2013-05-11 21:36:00,72.9,52.0,29.89,SSW,201,1.1,1.1,48,0.00,CLR,,0.00,WeatherDisplay:10.37,2013-05-12 02:36:00,
2013-05-11 21:42:00,72.5,51.7,29.89,SW,223,1.2,2.3,48,0.00,CLR,,0.00,WeatherDisplay:10.37,2013-05-12 02:42:00,
2013-05-11 21:47:00,72.1,51.4,29.89,SW,223,1.0,2.2,48,0.00,CLR,,0.00,WeatherDisplay:10.37,2013-05-12 02:47:00,
2013-05-11 21:52:00,71.8,51.6,29.89,SSW,201,0.8,1.1,49,0.00,CLR,,0.00,WeatherDisplay:10.37,2013-05-12 02:52:00,
2013-05-11 21:57:00,71.6,51.4,29.89,SW,223,0.3,1.1,49,0.00,CLR,,0.00,WeatherDisplay:10.37,2013-05-12 02:57:00,
2013-05-11 22:02:00,71.4,51.3,29.89,West,268,0.7,1.1,49,0.00,CLR,,0.00,WeatherDisplay:10.37,2013-05-12 03:02:00,
2013-05-11 22:07:00,71.2,51.1,29.90,West,268,1.7,2.3,49,0.00,CLR,,0.00,WeatherDisplay:10.37,2013-05-12 03:07:00,
2013-05-11 22:12:00,71.1,51.5,29.90,West,268,1.6,2.3,50,0.00,CLR,,0.00,WeatherDisplay:10.37,2013-05-12 03:12:00,
2013-05-11 22:17:00,70.9,51.3,29.90,SW,223,1.0,2.3,50,0.00,CLR,,0.00,WeatherDisplay:10.37,2013-05-12 03:17:00,
2013-05-11 22:22:00,70.7,51.1,29.90,SW,223,0.8,1.1,50,0.00,CLR,,0.00,WeatherDisplay:10.37,2013-05-12 03:22:00,
2013-05-11 22:27:00,70.5,51.0,29.90,WNW,291,0.0,0.0,50,0.00,CLR,,0.00,WeatherDisplay:10.37,2013-05-12 03:27:00,
2013-05-11 22:32:00,70.3,51.3,29.90,East,88,0.0,0.0,51,0.00,CLR,,0.00,WeatherDisplay:10.37,2013-05-12 03:32:00,
2013-05-11 22:37:00,70.2,51.7,29.90,East,88,0.0,0.0,52,0.00,CLR,,0.00,WeatherDisplay:10.37,2013-05-12 03:37:00,
2013-05-11 22:42:00,69.8,51.9,29.90,NE,43,0.0,0.0,53,0.00,CLR,,0.00,WeatherDisplay:10.37,2013-05-12 03:42:00,
2013-05-11 22:47:00,69.4,51.6,29.91,NE,43,0.0,0.0,53,0.00,CLR,,0.00,WeatherDisplay:10.37,2013-05-12 03:47:00,
2013-05-11 22:52:00,68.9,52.1,29.91,North,358,1.0,2.3,55,0.00,CLR,,0.00,WeatherDisplay:10.37,2013-05-12 03:52:00,
2013-05-11 22:57:00,68.4,51.6,29.91,NNW,335,2.3,2.3,55,0.00,CLR,,0.00,WeatherDisplay:10.37,2013-05-12 03:57:00,
2013-05-11 23:01:00,68.0,51.2,29.91,North,358,3.5,4.6,55,0.00,CLR,,0.00,WeatherDisplay:10.37,2013-05-12 04:01:00,
2013-05-11 23:02:00,68.0,51.2,29.91,North,358,4.2,5.8,55,0.00,CLR,,0.00,WeatherDisplay:10.37,2013-05-12 04:02:00,
2013-05-11 23:07:00,67.6,50.9,29.91,North,358,4.0,5.8,55,0.00,CLR,,0.00,WeatherDisplay:10.37,2013-05-12 04:07:00,
2013-05-11 23:12:00,67.3,51.0,29.92,North,358,4.2,5.8,56,0.00,CLR,,0.00,WeatherDisplay:10.37,2013-05-12 04:12:00,
2013-05-11 23:17:00,66.9,50.7,29.92,North,358,3.0,3.7,56,0.00,CLR,,0.00,WeatherDisplay:10.37,2013-05-12 04:17:00,
2013-05-11 23:22:00,66.9,51.2,29.92,NNE,21,2.5,3.5,57,0.00,CLR,,0.00,WeatherDisplay:10.37,2013-05-12 04:22:00,
2013-05-11 23:27:00,66.7,51.0,29.92,North,358,2.6,3.5,57,0.00,CLR,,0.00,WeatherDisplay:10.37,2013-05-12 04:27:00,
2013-05-11 23:32:00,66.6,50.8,29.92,North,358,2.9,3.6,57,0.00,CLR,,0.00,WeatherDisplay:10.37,2013-05-12 04:32:00,
2013-05-11 23:37:00,66.4,50.7,29.92,North,358,3.2,4.6,57,0.00,CLR,,0.00,WeatherDisplay:10.37,2013-05-12 04:37:00,
2013-05-11 23:42:00,66.2,51.0,29.92,North,358,3.5,4.6,58,0.00,CLR,,0.00,WeatherDisplay:10.37,2013-05-12 04:42:00,
2013-05-11 23:47:00,66.0,51.3,29.92,NNW,335,3.8,4.6,59,0.00,CLR,,0.00,WeatherDisplay:10.37,2013-05-12 04:47:00,
2013-05-11 23:52:00,65.8,51.1,29.92,NNW,335,3.3,4.6,59,0.00,CLR,,0.00,WeatherDisplay:10.37,2013-05-12 04:52:00,
2013-05-11 23:57:00,65.7,50.9,29.92,NNW,335,3.1,4.6,59,0.00,CLR,,0.00,WeatherDisplay:10.37,2013-05-12 04:57:00,